Showing default

CENTISPACE-1 S8, 62577

Orbit data source: Space-Track

CENTISPACE-1 S8, 62577 is a payload satellite owned by Centispace (CN) in LEO that was launched on Mon, 13 Jan 2025 UTC via a JIELONG-3 launch vehicle from the Yellow Sea Launch Area, China (YSLA). Payload-class satellites include a variety of spacecraft equipped with specific instruments for various scientific and technological missions. These include communications satellites like Starlink; space stations such as the ISS; scientific satellites like the Hubble; Earth observation satellites from companies like Planet Labs, Umbra, and HawkEye 360; GPS; miniature CubeSats for education and research; and military/defense satellites.

Loading next visibility...
Identifier
62577, 2025-007C
Orbit
LEO
Country
Flag of CNCN / PRC
Related business
Manufacturer
DFH Shenzhen
Mission
Operational Commercial Nav/Com
Bus & Motor
WK01, Unknown motor
Mass
140 kg wet, 140 kg dry
Launch date (UTC)
2025-01-13 (10 months ago)
Launch vehicle
JIELONG-3
Launch site
Yellow Sea Launch Area, China (YSLA)
Object type
Payload
Rocket body
Debris
Shape & HBR
Box + 2 Pan, 0.9 m
Radar Cross Section
0.833 m², Medium (>0.1 m² and < 1m²)

Expand to show TLE details & history
Last TLE update: 15 hours ago

TLE from 15 hours ago
0 CENTISPACE-1 S8
1 62577U 25007C   25305.61031903  .00000139  00000-0  95298-4 0  9999
2 62577  54.9868  30.3898 0058253  84.7810 275.9817 14.39273769 42917
Epoch: 2025-11-01T14:38Z
TLE epoch observation values (Epoch: 2025-11-01T14:38:51.564Z)
Latitude
-0.00003°
Longitude
129.537°
Altitude
757.856 km
Speed
7.479 km/s
True Right ascension
02h 01m 33s
True Declination
0° 00' 00"
Sunlit
Object was in full shadow at epoch
Visualization orbit readout
Latitude
Unknown
Longitude
Unknown
Altitude
Unknown
Speed
Unknown
Apparent Right ascension
Unknown
Apparent Declination
Unknown
Sunlit
N/A
Visualization observer readout
Local Sidereal Time
01:16:14
Azimuth
Unknown
Elevation
Unknown
Doppler factor
Unknown
Orbital elements
Apogee altitude
802.452 km
Perigee altitude
719.278 km
Semi-major axis
7,139.002 km
Eccentricity
0.00583
Inclination
54.9868°
RAAN
30.3898°
Arg. of periapsis
84.781°
True anomaly
275.31732°
Mean anomaly
275.9817°
Eccentric anomaly
275.64956°
Mean motion
3.59821 °/min
Orbital period
100.05 mins
BSTAR
0.000095298
Loading maneuver chart data...
Computing Atmospheric mass density...
Loading historical data...
Loading historical data...
Loading historical data...
Loading historical data...
Loading historical data...
Loading historical data...
Loading historical data...

Documentation

Showing up to 5 results
|